Zurück zum Katalog

CZ-6A DEB

AktivPO
NORAD 61828·DEBRIS·🇨🇳 China

Gestartet Aug 6, 2024 von Taiyuan Satellite Launch Center

Loading…

Nächste Überflüge (nächste 24 Stunden)

TLE

AktuellSource: Space-Track

Epoche: Sep 14, 2026, 10:46 UTC

1 61828U 24140ACU 26257.44893510  .00001464  00000-0  79963-3 0  9994
2 61828  88.9706 264.5334 0122091 336.1480  23.4073 14.07873949103052

Verfolge CZ-6A DEB in Echtzeit mit AllMySat

Download on the App Store